Vineland Station Rcs, Ontario

6:57 AM EST on February 25, 2017 (GMT -0500)
Vineland (AU8)

Weather History for CXVN - July, 2013

Change the Weather History Date:

Friday, July 12, 2013

  Actual Average (CYSN) Record (CYSN)
Temperature  
Mean Temperature 69 °F -  
Max Temperature 73 °F 77 °F 91 °F (2005)
Min Temperature 65 °F 61 °F 55 °F (1998)
Cooling Degree Days 4    
Growing Degree Days 19 (Base 50)    
Moisture  
Dew Point 63 °F    
Average Humidity 79    
Maximum Humidity 87    
Minimum Humidity 70    
Precipitation  
Precipitation 0.00 in - - ()
Sea Level Pressure  
Sea Level Pressure 30.08 in    
Wind  
Wind Speed 6 mph ()    
Max Wind Speed 10 mph    
Max Gust Speed -    
Averages and records for this station are not official NWS values.
T = Trace of Precipitation, MM = Missing Value Source: Averaged Metar Reports

Daily Weather History Graph

Daily Weather History Graph

Search for Another Location

Airport or City:

Trip Planner

Search our weather history database for the weather conditions in past years. The results will help you decide how hot, cold, wet, or windy it might be!

Date:

Astronomy

Jul. 12, 2013 Rise Set
Actual Time 5:49 AM EDT 8:56 PM EDT
Civil Twilight 5:14 AM EDT 9:31 PM EDT
Nautical Twilight 4:30 AM EDT 10:15 PM EDT
Astronomical Twilight 3:36 AM EDT 11:08 PM EDT
Moon 10:12 AM EDT (7/12) 10:57 PM EDT (7/12)
Length of Visible Light 16h 16m
Length of Day
15h 07m
Waxing Crescent, 17% of the Moon is Illuminated
Jul 12
Waxing Crescent
Jul 15
First Quarter
Jul 22
Full
Jul 29
Last Quarter
Aug 6
New

Hourly Weather History & Observations

Time (EDT) Temp. Dew Point Humidity Pressure Visibility Wind Dir Wind Speed Gust Speed Precip Events Conditions
12:00 AM 67.5 °F 57.7 °F 71% 30.00 in - North 9.2 mph - N/A   Unknown
1:00 AM 65.5 °F 57.6 °F 76% 30.02 in - NW 3.5 mph - N/A   Unknown
2:00 AM 66 °F 58 °F 70% 30.01 in - North 5.8 mph - -  
2:00 AM 65.7 °F 58.5 °F 78% 30.01 in - North 5.8 mph - N/A   Unknown
3:00 AM 66.0 °F 59.5 °F 80% 30.02 in - North 5.8 mph - N/A   Unknown
4:00 AM 69.4 °F 64.4 °F 84% 30.03 in - NE 6.9 mph - N/A   Unknown
5:00 AM 69.6 °F 65.5 °F 87% 30.03 in - ENE 8.1 mph - N/A   Unknown
6:00 AM 67.5 °F 63.5 °F 87% 30.06 in - East 4.6 mph - N/A   Unknown
7:00 AM 68.0 °F 63.0 °F 84% 30.07 in - East 2.3 mph - N/A   Unknown
8:00 AM 70 °F 63 °F 72% 30.09 in - East 5.8 mph - -  
8:00 AM 69.6 °F 62.8 °F 79% 30.09 in - East 5.8 mph - N/A   Unknown
9:00 AM 71.2 °F 62.8 °F 75% 30.11 in - East 5.8 mph - N/A   Unknown
10:00 AM 71.8 °F 64.0 °F 77% 30.11 in - NE 6.9 mph - N/A   Unknown
11:00 AM 72.0 °F 65.5 °F 80% 30.11 in - ENE 10.4 mph - N/A   Unknown
12:00 PM 70.7 °F 64.2 °F 80% 30.12 in - ENE 10.4 mph - N/A   Unknown
1:00 PM 71.8 °F 64.6 °F 78% 30.12 in - NE 9.2 mph - N/A   Unknown
2:00 PM 71.4 °F 64.2 °F 78% 30.13 in - ENE 6.9 mph - N/A   Unknown
3:00 PM 72.0 °F 64.4 °F 77% 30.12 in - East 6.9 mph - N/A   Unknown
4:00 PM 71.6 °F 63.7 °F 76% 30.11 in - East 8.1 mph - N/A   Unknown
5:00 PM 71.8 °F 64.6 °F 78% 30.10 in - East 6.9 mph - N/A   Unknown
6:00 PM 72.5 °F 66.4 °F 81% 30.10 in - ENE 5.8 mph - N/A   Unknown
7:00 PM 72.0 °F 66.2 °F 82% 30.10 in - East 5.8 mph - N/A   Unknown
8:00 PM 72 °F 66 °F 75% 30.11 in - ENE 4.6 mph - -  
8:00 PM 72.0 °F 65.8 °F 81% 30.11 in - ENE 4.6 mph - N/A   Unknown
9:00 PM 71.1 °F 65.5 °F 82% 30.11 in - East 4.6 mph - N/A   Unknown
10:00 PM 70.3 °F 63.7 °F 79% 30.13 in - East 2.3 mph - N/A   Unknown
11:00 PM 69.3 °F 62.8 °F 80% 30.14 in - ESE 3.5 mph - N/A   Unknown